Stations météo

réclame
Mon MeteoGroup
Madrid/Getafe, Espagne (8224): Température de l'air & dewpoint: 18.10.2017 00:00:00 - 24.10.2017 00:00:00 (CEST)Madrid/Getafe, Espagne (8224): Vitesse du vent: 18.10.2017 00:00:00 - 24.10.2017 00:00:00 (CEST)Madrid/Getafe, Espagne (8224): Direction du vent: 18.10.2017 00:00:00 - 24.10.2017 00:00:00 (CEST)Madrid/Getafe, Espagne (8224): reduced air pressure: 18.10.2017 00:00:00 - 24.10.2017 00:00:00 (CEST)Madrid/Getafe, Espagne (8224): visibility: 18.10.2017 00:00:00 - 24.10.2017 00:00:00 (CEST)
Date & Time tt [°C] td [°C] ff [km/h] ff [knt] dd ppp [hPa] vv [km]
24.10.2017 00:00:00 - - - - - - -
23.10.2017 23:00:00 - - - - - - -
23.10.2017 22:00:00 - - - - - - -
23.10.2017 21:00:00 - - - - - - -
23.10.2017 20:00:00 19,4 4,0 0 0 N 1023,1 40
23.10.2017 19:00:00 - - - - - - -
23.10.2017 18:00:00 - - - - - - -
23.10.2017 17:00:00 21,6 3,3 0 0 N 1022,7 50
23.10.2017 16:00:00 - - - - - - -
23.10.2017 15:00:00 - - - - - - -
23.10.2017 14:00:00 18,2 6,4 0 0 N 1025,5 30
23.10.2017 13:00:00 - - - - - - -
23.10.2017 12:00:00 - - - - - - -
23.10.2017 11:00:00 12,6 6,9 5 3 E 1027,7 30
23.10.2017 10:00:00 - - - - - - -
23.10.2017 09:00:00 - - - - - - -
23.10.2017 08:00:00 9,2 6,3 5 3 NNE 1027,1 30
23.10.2017 07:00:00 - - - - - - -
23.10.2017 06:00:00 - - - - - - -
23.10.2017 05:00:00 - - - - - - -
23.10.2017 04:00:00 - - - - - - -
23.10.2017 03:00:00 - - - - - - -
23.10.2017 02:00:00 - - - - - - -
23.10.2017 01:00:00 - - - - - - -
23.10.2017 00:00:00 - - - - - - -
22.10.2017 23:00:00 - - - - - - -
22.10.2017 22:00:00 - - - - - - -
22.10.2017 21:00:00 - - - - - - -
22.10.2017 20:00:00 16,4 6,5 4 2 E 1024,5 40
22.10.2017 19:00:00 - - - - - - -
22.10.2017 18:00:00 - - - - - - -
22.10.2017 17:00:00 18,8 6,6 4 2 E 1023,6 40
22.10.2017 16:00:00 - - - - - - -
22.10.2017 15:00:00 - - - - - - -
22.10.2017 14:00:00 16,8 6,6 11 6 NNE 1025,8 40
22.10.2017 13:00:00 - - - - - - -
22.10.2017 12:00:00 - - - - - - -
22.10.2017 11:00:00 13,6 7,2 15 8 NE 1027,5 30
22.10.2017 10:00:00 - - - - - - -
22.10.2017 09:00:00 - - - - - - -
22.10.2017 08:00:00 10,6 6,4 8 4 N 1026,7 30
22.10.2017 07:00:00 - - - - - - -
22.10.2017 06:00:00 - - - - - - -
22.10.2017 05:00:00 - - - - - - -
22.10.2017 04:00:00 - - - - - - -
22.10.2017 03:00:00 - - - - - - -
22.10.2017 02:00:00 - - - - - - -
22.10.2017 01:00:00 - - - - - - -
22.10.2017 00:00:00 - - - - - - -
21.10.2017 23:00:00 - - - - - - -
21.10.2017 22:00:00 - - - - - - -
21.10.2017 21:00:00 - - - - - - -
21.10.2017 20:00:00 18,2 11,5 18 10 NW 1021,7 40
21.10.2017 19:00:00 - - - - - - -
21.10.2017 18:00:00 - - - - - - -
21.10.2017 17:00:00 22,2 14,3 16 9 SW 1019,9 40
21.10.2017 16:00:00 - - - - - - -
21.10.2017 15:00:00 - - - - - - -
21.10.2017 14:00:00 20,6 13,8 13 7 WSW 1021,5 40
21.10.2017 13:00:00 - - - - - - -
21.10.2017 12:00:00 - - - - - - -
21.10.2017 11:00:00 17,4 15,7 9 5 W 1023,2 15
21.10.2017 10:00:00 - - - - - - -
21.10.2017 09:00:00 - - - - - - -
21.10.2017 08:00:00 16,8 16,5 5 3 SW 1021,5 8
21.10.2017 07:00:00 - - - - - - -
21.10.2017 06:00:00 - - - - - - -
21.10.2017 05:00:00 - - - - - - -
21.10.2017 04:00:00 - - - - - - -
21.10.2017 03:00:00 - - - - - - -
21.10.2017 02:00:00 - - - - - - -
21.10.2017 01:00:00 - - - - - - -
21.10.2017 00:00:00 - - - - - - -
20.10.2017 23:00:00 - - - - - - -
20.10.2017 22:00:00 - - - - - - -
20.10.2017 21:00:00 - - - - - - -
20.10.2017 20:00:00 17,8 13,7 8 4 SSE 1019,7 25
20.10.2017 19:00:00 - - - - - - -
20.10.2017 18:00:00 - - - - - - -
20.10.2017 17:00:00 20,2 13,4 16 9 SSW 1018,7 40
20.10.2017 16:00:00 - - - - - - -
20.10.2017 15:00:00 - - - - - - -
20.10.2017 14:00:00 18,0 13,5 13 7 S 1019,8 40
20.10.2017 13:00:00 - - - - - - -
20.10.2017 12:00:00 - - - - - - -
20.10.2017 11:00:00 13,4 12,3 8 4 WSW 1020,8 9
20.10.2017 10:00:00 - - - - - - -
20.10.2017 09:00:00 - - - - - - -
20.10.2017 08:00:00 11,0 10,7 5 3 ESE 1019,3 20
20.10.2017 07:00:00 - - - - - - -
20.10.2017 06:00:00 - - - - - - -
20.10.2017 05:00:00 - - - - - - -
20.10.2017 04:00:00 - - - - - - -
20.10.2017 03:00:00 - - - - - - -
20.10.2017 02:00:00 - - - - - - -
20.10.2017 01:00:00 - - - - - - -
20.10.2017 00:00:00 - - - - - - -
19.10.2017 23:00:00 - - - - - - -
19.10.2017 22:00:00 - - - - - - -
19.10.2017 21:00:00 - - - - - - -
19.10.2017 20:00:00 15,4 8,2 13 7 NNW 1013,4 30
19.10.2017 19:00:00 - - - - - - -
19.10.2017 18:00:00 - - - - - - -
19.10.2017 17:00:00 17,2 8,1 22 12 WSW 1011,3 40
19.10.2017 16:00:00 - - - - - - -
19.10.2017 15:00:00 - - - - - - -
19.10.2017 14:00:00 15,2 7,0 18 10 W 1012,7 20
19.10.2017 13:00:00 - - - - - - -
19.10.2017 12:00:00 - - - - - - -
19.10.2017 11:00:00 8,6 8,6 5 3 E 1014,5 0,8
19.10.2017 10:00:00 - - - - - - -
19.10.2017 09:00:00 - - - - - - -
19.10.2017 08:00:00 8,4 8,4 0 0 N 1013,1 0,1
19.10.2017 07:00:00 - - - - - - -
19.10.2017 06:00:00 - - - - - - -
19.10.2017 05:00:00 - - - - - - -
19.10.2017 04:00:00 - - - - - - -
19.10.2017 03:00:00 - - - - - - -
19.10.2017 02:00:00 - - - - - - -
19.10.2017 01:00:00 - - - - - - -
19.10.2017 00:00:00 - - - - - - -
18.10.2017 23:00:00 - - - - - - -
18.10.2017 22:00:00 - - - - - - -
18.10.2017 21:00:00 - - - - - - -
18.10.2017 20:00:00 11,6 10,0 9 5 SW 1011,4 20
18.10.2017 19:00:00 - - - - - - -
18.10.2017 18:00:00 - - - - - - -
18.10.2017 17:00:00 13,6 11,5 22 12 SW 1010,1 20
18.10.2017 16:00:00 - - - - - - -
18.10.2017 15:00:00 - - - - - - -
18.10.2017 14:00:00 13,8 12,7 18 10 SW 1011,2 20
18.10.2017 13:00:00 - - - - - - -
18.10.2017 12:00:00 - - - - - - -
18.10.2017 11:00:00 - - - - - - -
18.10.2017 10:00:00 - - - - - - -
18.10.2017 09:00:00 - - - - - - -
18.10.2017 08:00:00 12,4 12,4 4 2 SW 1012,8 5
18.10.2017 07:00:00 - - - - - - -
18.10.2017 06:00:00 - - - - - - -
18.10.2017 05:00:00 - - - - - - -
18.10.2017 04:00:00 - - - - - - -
18.10.2017 03:00:00 - - - - - - -
18.10.2017 02:00:00 - - - - - - -
18.10.2017 01:00:00 - - - - - - -
18.10.2017 00:00:00 - - - - - - -

tt = Température de l'air
td = dewpoint
ff = Vitesse du vent
dd = Direction du vent
ppp = reduced air pressure
vv = visibility

stations d'obs. à proximité